EIN5NP EIDW-LFRS

Flight info

Callsign EIN5NP
Flight time 1h 20m
Altitude 23000
Route PESIT2J PESIT DCT BAKUR N24 ADHAV/N0440F370 DCT ABBEW/N0366F230 N90 SKESO/N0438F370 UN862 GODAN
Aircraft A320/M-SDE3FGHIRWY/LB1

Departure

Time 2026-05-07 22:23
Airport Dublin Airport (EIDW)

Arrival

Time 2026-05-07 23:44
Airport Nantes Atlantique Airport (LFRS)
Time Latitude Longitude Altitude Speed Heading
2026-05-07 21:52 53.42251 -6.24433 212 ft 0 kts 332°
2026-05-07 22:09 53.42239 -6.24422 211 ft 2 kts 332°
2026-05-07 22:10 53.42224 -6.24409 211 ft 2 kts 328°
2026-05-07 22:10 53.42215 -6.24388 215 ft 2 kts 282°
2026-05-07 22:10 53.42211 -6.24360 211 ft 2 kts 282°
2026-05-07 22:10 53.42205 -6.24334 211 ft 2 kts 294°
2026-05-07 22:11 53.42198 -6.24308 211 ft 2 kts 308°
2026-05-07 22:11 53.42187 -6.24286 211 ft 2 kts 298°
2026-05-07 22:11 53.42183 -6.24259 211 ft 2 kts 276°
2026-05-07 22:11 53.42181 -6.24231 211 ft 2 kts 238°
2026-05-07 22:12 53.42184 -6.24223 211 ft 0 kts 229°
2026-05-07 22:15 53.42177 -6.24237 217 ft 3 kts 228°
2026-05-07 22:15 53.42160 -6.24280 218 ft 6 kts 254°
2026-05-07 22:15 53.42160 -6.24366 211 ft 9 kts 275°
2026-05-07 22:15 53.42166 -6.24499 213 ft 13 kts 275°
2026-05-07 22:16 53.42177 -6.24671 213 ft 15 kts 279°
2026-05-07 22:16 53.42252 -6.24782 218 ft 15 kts 338°
2026-05-07 22:16 53.42347 -6.24851 211 ft 15 kts 335°
2026-05-07 22:16 53.42439 -6.24919 213 ft 14 kts 337°
2026-05-07 22:17 53.42527 -6.24982 213 ft 14 kts 337°
2026-05-07 22:17 53.42611 -6.25043 211 ft 13 kts 336°
2026-05-07 22:17 53.42688 -6.25100 211 ft 12 kts 332°
2026-05-07 22:17 53.42736 -6.25195 211 ft 10 kts 319°
2026-05-07 22:18 53.42797 -6.25245 211 ft 9 kts 335°
2026-05-07 22:18 53.42911 -6.25328 211 ft 10 kts 336°
2026-05-07 22:18 53.42991 -6.25387 211 ft 15 kts 336°
2026-05-07 22:19 53.43094 -6.25463 218 ft 17 kts 337°
2026-05-07 22:19 53.43173 -6.25486 216 ft 11 kts 30°
2026-05-07 22:19 53.43209 -6.25389 212 ft 9 kts 65°
2026-05-07 22:19 53.43230 -6.25289 212 ft 9 kts 79°
2026-05-07 22:20 53.43229 -6.25196 217 ft 8 kts 97°
2026-05-07 22:20 53.43222 -6.25106 211 ft 11 kts 96°
2026-05-07 22:20 53.43213 -6.24901 213 ft 21 kts 94°
2026-05-07 22:20 53.43198 -6.24654 211 ft 16 kts 96°
2026-05-07 22:21 53.43189 -6.24508 211 ft 12 kts 94°
2026-05-07 22:21 53.43200 -6.24441 211 ft 5 kts 55°
2026-05-07 22:21 53.43227 -6.24417 214 ft 4 kts
2026-05-07 22:21 53.43309 -6.24404 215 ft 17 kts 347°
2026-05-07 22:22 53.43376 -6.24551 214 ft 16 kts 332°
2026-05-07 22:22 53.43485 -6.24552 216 ft 14 kts 355°
2026-05-07 22:22 53.43529 -6.24670 217 ft 13 kts 272°
2026-05-07 22:22 53.43538 -6.24828 213 ft 15 kts 275°
2026-05-07 22:23 53.43555 -6.25157 211 ft 60 kts 275°
2026-05-07 22:23 53.43614 -6.26258 212 ft 126 kts 275°
2026-05-07 22:23 53.43687 -6.28002 360 ft 162 kts 272°
2026-05-07 22:23 53.43828 -6.29857 1062 ft 163 kts 291°
2026-05-07 22:24 53.44587 -6.31267 1731 ft 168 kts 318°
2026-05-07 22:24 53.45495 -6.32666 2106 ft 188 kts 307°
2026-05-07 22:24 53.46348 -6.34489 2455 ft 210 kts 303°
2026-05-07 22:24 53.47232 -6.36551 3015 ft 227 kts 302°
2026-05-07 22:25 53.48175 -6.38841 3486 ft 250 kts 301°
2026-05-07 22:25 53.49190 -6.41310 4249 ft 261 kts 301°
2026-05-07 22:25 53.50234 -6.43823 5148 ft 265 kts 302°
2026-05-07 22:25 53.50869 -6.45632 5737 ft 267 kts 288°
2026-05-07 22:26 53.50827 -6.49628 6891 ft 265 kts 243°
2026-05-07 22:26 53.50117 -6.51280 7463 ft 265 kts 220°
2026-05-07 22:26 53.48437 -6.52592 8339 ft 269 kts 187°
2026-05-07 22:26 53.46558 -6.52345 9212 ft 274 kts 169°
2026-05-07 22:27 53.44704 -6.51484 10075 ft 279 kts 164°
2026-05-07 22:27 53.42786 -6.50434 10462 ft 302 kts 164°
2026-05-07 22:27 53.40719 -6.49340 10910 ft 318 kts 165°
2026-05-07 22:27 53.38573 -6.48312 11634 ft 324 kts 167°
2026-05-07 22:28 53.36382 -6.47371 12392 ft 328 kts 168°
2026-05-07 22:28 53.34150 -6.46495 13150 ft 331 kts 169°
2026-05-07 22:28 53.31895 -6.45631 13899 ft 335 kts 167°
2026-05-07 22:28 53.29692 -6.44250 14615 ft 340 kts 158°
2026-05-07 22:29 53.27533 -6.42600 15331 ft 343 kts 158°
2026-05-07 22:29 53.25359 -6.40920 16016 ft 346 kts 158°
2026-05-07 22:29 53.23160 -6.39211 16694 ft 349 kts 158°
2026-05-07 22:29 53.20948 -6.37493 17354 ft 352 kts 158°
2026-05-07 22:30 53.18715 -6.35764 17994 ft 355 kts 158°
2026-05-07 22:30 53.16465 -6.34023 18624 ft 358 kts 158°
2026-05-07 22:30 53.14198 -6.32275 19237 ft 361 kts 158°
2026-05-07 22:30 53.11907 -6.30514 19820 ft 364 kts 158°
2026-05-07 22:31 53.09594 -6.28733 20414 ft 368 kts 158°
2026-05-07 22:31 53.07262 -6.26938 20993 ft 371 kts 158°
2026-05-07 22:31 53.04910 -6.25135 21563 ft 374 kts 158°
2026-05-07 22:31 53.02538 -6.23323 22123 ft 377 kts 158°
2026-05-07 22:32 53.00147 -6.21495 22667 ft 380 kts 158°
2026-05-07 22:32 52.97741 -6.19656 23163 ft 383 kts 158°
2026-05-07 22:32 52.95307 -6.17798 23681 ft 386 kts 158°
2026-05-07 22:32 52.92862 -6.15927 24178 ft 389 kts 158°
2026-05-07 22:33 52.90400 -6.14036 24642 ft 392 kts 158°
2026-05-07 22:33 52.87920 -6.12127 25098 ft 394 kts 158°
2026-05-07 22:33 52.85425 -6.10202 25536 ft 397 kts 158°
2026-05-07 22:33 52.82911 -6.08272 25953 ft 400 kts 158°
2026-05-07 22:34 52.80379 -6.06335 26363 ft 402 kts 158°
2026-05-07 22:34 52.77837 -6.04393 26750 ft 405 kts 158°
2026-05-07 22:34 52.75268 -6.02432 27133 ft 407 kts 158°
2026-05-07 22:34 52.72688 -6.00462 27511 ft 410 kts 158°
2026-05-07 22:35 52.70102 -5.98482 27876 ft 412 kts 157°
2026-05-07 22:35 52.67495 -5.96489 28227 ft 414 kts 158°
2026-05-07 22:35 52.64870 -5.94495 28576 ft 416 kts 158°
2026-05-07 22:35 52.62231 -5.92498 28917 ft 418 kts 158°
2026-05-07 22:36 52.59580 -5.90495 29250 ft 420 kts 158°
2026-05-07 22:36 52.56915 -5.88485 29553 ft 422 kts 158°
2026-05-07 22:36 52.54238 -5.86468 29873 ft 425 kts 158°
2026-05-07 22:36 52.51546 -5.84435 30174 ft 427 kts 158°
2026-05-07 22:37 52.48843 -5.82391 30467 ft 429 kts 158°
2026-05-07 22:37 52.46128 -5.80343 30751 ft 430 kts 158°
2026-05-07 22:37 52.43401 -5.78291 31015 ft 432 kts 158°
2026-05-07 22:37 52.40659 -5.76250 31275 ft 433 kts 160°
2026-05-07 22:38 52.37815 -5.74643 31522 ft 433 kts 166°
2026-05-07 22:38 52.34925 -5.73243 31811 ft 433 kts 166°
2026-05-07 22:38 52.32044 -5.71851 32160 ft 432 kts 166°
2026-05-07 22:38 52.29167 -5.70461 32500 ft 431 kts 166°
2026-05-07 22:39 52.26295 -5.69072 32831 ft 430 kts 166°
2026-05-07 22:39 52.23447 -5.67562 33164 ft 431 kts 160°
2026-05-07 22:39 52.20679 -5.65688 33474 ft 430 kts 160°
2026-05-07 22:39 52.17916 -5.63816 33798 ft 430 kts 160°
2026-05-07 22:40 52.15158 -5.61951 34119 ft 428 kts 160°
2026-05-07 22:40 52.12405 -5.60099 34417 ft 428 kts 160°
2026-05-07 22:40 52.09652 -5.58250 34688 ft 428 kts 160°
2026-05-07 22:40 52.06967 -5.56148 34930 ft 431 kts 152°
2026-05-07 22:41 52.04505 -5.53324 35147 ft 436 kts 142°
2026-05-07 22:41 52.02360 -5.49815 35367 ft 440 kts 132°
2026-05-07 22:41 52.00585 -5.45743 35570 ft 443 kts 125°
2026-05-07 22:41 51.98914 -5.41530 35765 ft 444 kts 126°
2026-05-07 22:42 51.97233 -5.37315 35972 ft 445 kts 126°
2026-05-07 22:42 51.95541 -5.33106 36175 ft 446 kts 126°
2026-05-07 22:42 51.93841 -5.28900 36375 ft 446 kts 126°
2026-05-07 22:42 51.92063 -5.24785 36559 ft 445 kts 132°
2026-05-07 22:43 51.89954 -5.21144 36750 ft 442 kts 141°
2026-05-07 22:43 51.87587 -5.18005 36970 ft 439 kts 144°
2026-05-07 22:43 51.85213 -5.14951 37024 ft 435 kts 144°
2026-05-07 22:44 51.80503 -5.08880 37028 ft 432 kts 144°
2026-05-07 22:44 51.75804 -5.02848 37024 ft 431 kts 144°
2026-05-07 22:45 51.71112 -4.96833 37026 ft 431 kts 144°
2026-05-07 22:45 51.66413 -4.90839 37034 ft 431 kts 144°
2026-05-07 22:46 51.61706 -4.84859 37034 ft 431 kts 144°
2026-05-07 22:46 51.57000 -4.78877 37038 ft 431 kts 144°
2026-05-07 22:47 51.52290 -4.72911 37044 ft 431 kts 144°
2026-05-07 22:47 51.47583 -4.66963 37044 ft 431 kts 144°
2026-05-07 22:48 51.42869 -4.61021 37034 ft 431 kts 144°
2026-05-07 22:48 51.38160 -4.55104 37041 ft 430 kts 144°
2026-05-07 22:49 51.33447 -4.49190 37033 ft 430 kts 144°
2026-05-07 22:49 51.28730 -4.43293 37038 ft 430 kts 144°
2026-05-07 22:50 51.24008 -4.37418 37032 ft 430 kts 144°
2026-05-07 22:50 51.19283 -4.31547 37040 ft 431 kts 144°
2026-05-07 22:51 51.14526 -4.25651 37044 ft 431 kts 145°
2026-05-07 22:51 51.09785 -4.19807 37047 ft 431 kts 145°
2026-05-07 22:52 51.05077 -4.14002 37045 ft 431 kts 145°
2026-05-07 22:52 51.00342 -4.08173 37044 ft 431 kts 144°
2026-05-07 22:53 50.95575 -4.02316 37050 ft 431 kts 145°
2026-05-07 22:53 50.90832 -3.96515 37049 ft 430 kts 145°
2026-05-07 22:54 50.86086 -3.90737 37044 ft 430 kts 145°
2026-05-07 22:54 50.81344 -3.84963 37046 ft 431 kts 145°
2026-05-07 22:55 50.76589 -3.79195 37048 ft 431 kts 145°
2026-05-07 22:55 50.71831 -3.73430 37053 ft 431 kts 145°
2026-05-07 22:56 50.67071 -3.67678 37052 ft 431 kts 145°
2026-05-07 22:56 50.62309 -3.61955 37051 ft 430 kts 145°
2026-05-07 22:57 50.57547 -3.56249 37053 ft 430 kts 145°
2026-05-07 22:57 50.52797 -3.50545 37049 ft 430 kts 145°
2026-05-07 22:58 50.47786 -3.45522 37050 ft 426 kts 155°
2026-05-07 22:58 50.42510 -3.41261 37043 ft 427 kts 155°
2026-05-07 22:59 50.37234 -3.36996 37049 ft 427 kts 155°
2026-05-07 22:59 50.31958 -3.32740 37046 ft 427 kts 155°
2026-05-07 23:00 50.26679 -3.28483 37047 ft 427 kts 155°
2026-05-07 23:00 50.21396 -3.24237 37049 ft 427 kts 155°
2026-05-07 23:01 50.16111 -3.20000 37045 ft 427 kts 155°
2026-05-07 23:01 50.10827 -3.15771 37044 ft 427 kts 155°
2026-05-07 23:02 50.05532 -3.11549 37044 ft 428 kts 155°
2026-05-07 23:02 50.01125 -3.08049 37047 ft 428 kts 155°
2026-05-07 23:03 49.95790 -3.03986 37043 ft 425 kts 162°
2026-05-07 23:03 49.90064 -3.02119 37033 ft 419 kts 180°
2026-05-07 23:04 49.84253 -3.01736 37036 ft 422 kts 168°
2026-05-07 23:04 49.81473 -3.00234 37026 ft 426 kts 156°
2026-05-07 23:04 49.78911 -2.97907 37023 ft 429 kts 146°
2026-05-07 23:05 49.74393 -2.91707 37021 ft 432 kts 140°
2026-05-07 23:05 49.69995 -2.85459 37022 ft 433 kts 140°
2026-05-07 23:06 49.65553 -2.79167 37022 ft 434 kts 140°
2026-05-07 23:06 49.61118 -2.72855 37022 ft 434 kts 140°
2026-05-07 23:07 49.56678 -2.66548 37027 ft 434 kts 140°
2026-05-07 23:07 49.52229 -2.60246 37032 ft 435 kts 140°
2026-05-07 23:08 49.47773 -2.53956 37029 ft 435 kts 140°
2026-05-07 23:08 49.43317 -2.47673 37032 ft 435 kts 140°
2026-05-07 23:09 49.38824 -2.41351 37033 ft 435 kts 140°
2026-05-07 23:09 49.34356 -2.35097 37040 ft 435 kts 140°
2026-05-07 23:10 49.29878 -2.28850 37036 ft 435 kts 140°
2026-05-07 23:10 49.25398 -2.22608 37042 ft 435 kts 140°
2026-05-07 23:11 49.20918 -2.16367 37038 ft 435 kts 140°
2026-05-07 23:11 49.16435 -2.10142 37044 ft 435 kts 140°
2026-05-07 23:12 49.11956 -2.03934 37037 ft 435 kts 140°
2026-05-07 23:12 49.07467 -1.97744 37048 ft 435 kts 140°
2026-05-07 23:13 49.02975 -1.91576 37044 ft 435 kts 140°
2026-05-07 23:13 48.98488 -1.85407 37049 ft 434 kts 140°
2026-05-07 23:14 48.93886 -1.79484 36903 ft 432 kts 150°
2026-05-07 23:14 48.91269 -1.77315 36656 ft 426 kts 160°
2026-05-07 23:14 48.88479 -1.75873 36412 ft 422 kts 169°
2026-05-07 23:14 48.85599 -1.75170 36158 ft 418 kts 179°
2026-05-07 23:15 48.82686 -1.75068 35727 ft 419 kts 181°
2026-05-07 23:15 48.79787 -1.75034 35246 ft 414 kts 181°
2026-05-07 23:15 48.76916 -1.75006 34726 ft 411 kts 181°
2026-05-07 23:15 48.74068 -1.74979 34215 ft 408 kts 181°
2026-05-07 23:16 48.71244 -1.74949 33694 ft 404 kts 181°
2026-05-07 23:16 48.68445 -1.74916 33194 ft 401 kts 181°
2026-05-07 23:16 48.65669 -1.74881 32687 ft 397 kts 181°
2026-05-07 23:16 48.62915 -1.74847 32177 ft 394 kts 181°
2026-05-07 23:17 48.60187 -1.74816 31684 ft 391 kts 181°
2026-05-07 23:17 48.57475 -1.74783 31201 ft 388 kts 181°
2026-05-07 23:17 48.54785 -1.74748 30729 ft 385 kts 181°
2026-05-07 23:17 48.52114 -1.74715 30246 ft 382 kts 181°
2026-05-07 23:18 48.49472 -1.74685 29790 ft 379 kts 181°
2026-05-07 23:18 48.46848 -1.74655 29343 ft 375 kts 181°
2026-05-07 23:18 48.44246 -1.74625 28885 ft 372 kts 181°
2026-05-07 23:18 48.41668 -1.74594 28456 ft 369 kts 181°
2026-05-07 23:19 48.39111 -1.74560 28028 ft 366 kts 181°
2026-05-07 23:19 48.36572 -1.74524 27615 ft 362 kts 181°
2026-05-07 23:19 48.34064 -1.74490 27208 ft 359 kts 181°
2026-05-07 23:19 48.31578 -1.74459 26804 ft 355 kts 181°
2026-05-07 23:20 48.29119 -1.74430 26401 ft 351 kts 181°
2026-05-07 23:20 48.26688 -1.74402 26017 ft 347 kts 181°
2026-05-07 23:20 48.24283 -1.74375 25610 ft 344 kts 181°
2026-05-07 23:20 48.21902 -1.74347 25206 ft 340 kts 181°
2026-05-07 23:21 48.19545 -1.74318 24799 ft 337 kts 181°
2026-05-07 23:21 48.17210 -1.74288 24380 ft 334 kts 181°
2026-05-07 23:21 48.14894 -1.74260 23969 ft 331 kts 181°
2026-05-07 23:21 48.12597 -1.74235 23530 ft 329 kts 181°
2026-05-07 23:22 48.10321 -1.74208 23126 ft 327 kts 181°
2026-05-07 23:22 48.08057 -1.74244 22703 ft 324 kts 186°
2026-05-07 23:22 48.05847 -1.74783 22281 ft 320 kts 196°
2026-05-07 23:22 48.03736 -1.75803 21855 ft 318 kts 200°
2026-05-07 23:23 48.01652 -1.76885 21453 ft 317 kts 200°
2026-05-07 23:23 47.99572 -1.77957 21046 ft 315 kts 200°
2026-05-07 23:23 47.97507 -1.79018 20638 ft 314 kts 200°
2026-05-07 23:23 47.95447 -1.80072 20244 ft 312 kts 200°
2026-05-07 23:24 47.93398 -1.81121 19844 ft 311 kts 200°
2026-05-07 23:24 47.91359 -1.82164 19450 ft 309 kts 200°
2026-05-07 23:24 47.89331 -1.83199 19051 ft 308 kts 200°
2026-05-07 23:24 47.87311 -1.84232 18669 ft 306 kts 200°
2026-05-07 23:25 47.85297 -1.85262 18277 ft 305 kts 200°
2026-05-07 23:25 47.83298 -1.86286 17900 ft 304 kts 200°
2026-05-07 23:25 47.81303 -1.87307 17523 ft 303 kts 200°
2026-05-07 23:25 47.79314 -1.88321 17143 ft 302 kts 200°
2026-05-07 23:26 47.77331 -1.89330 16765 ft 301 kts 200°
2026-05-07 23:26 47.75355 -1.90335 16395 ft 300 kts 200°
2026-05-07 23:26 47.73384 -1.91338 16028 ft 299 kts 200°
2026-05-07 23:26 47.71417 -1.92336 15659 ft 298 kts 199°
2026-05-07 23:27 47.67499 -1.94322 14927 ft 297 kts 198°
2026-05-07 23:27 47.65482 -1.94940 14559 ft 297 kts 185°
2026-05-07 23:27 47.63420 -1.94820 14192 ft 297 kts 172°
2026-05-07 23:28 47.61436 -1.93973 13819 ft 299 kts 158°
2026-05-07 23:28 47.59570 -1.92627 13445 ft 298 kts 155°
2026-05-07 23:28 47.57713 -1.91265 13073 ft 297 kts 155°
2026-05-07 23:28 47.55860 -1.89916 12700 ft 296 kts 156°
2026-05-07 23:29 47.54011 -1.88579 12323 ft 295 kts 155°
2026-05-07 23:29 47.52168 -1.87251 11943 ft 294 kts 156°
2026-05-07 23:29 47.50332 -1.85927 11605 ft 291 kts 155°
2026-05-07 23:29 47.48510 -1.84613 11213 ft 290 kts 155°
2026-05-07 23:30 47.46697 -1.83303 10798 ft 290 kts 155°
2026-05-07 23:30 47.44891 -1.81997 10412 ft 289 kts 155°
2026-05-07 23:30 47.43092 -1.80694 10019 ft 288 kts 155°
2026-05-07 23:30 47.41311 -1.79405 9840 ft 283 kts 155°
2026-05-07 23:31 47.39546 -1.78130 9700 ft 282 kts 155°
2026-05-07 23:31 47.37782 -1.76861 9553 ft 282 kts 155°
2026-05-07 23:31 47.36019 -1.75595 9400 ft 282 kts 155°
2026-05-07 23:31 47.34259 -1.74330 9242 ft 281 kts 155°
2026-05-07 23:32 47.32504 -1.73065 9089 ft 280 kts 155°
2026-05-07 23:32 47.30753 -1.71805 8943 ft 280 kts 155°
2026-05-07 23:32 47.29005 -1.70551 8785 ft 279 kts 155°
2026-05-07 23:32 47.27265 -1.69306 8633 ft 278 kts 155°
2026-05-07 23:33 47.25525 -1.68059 8487 ft 278 kts 155°
2026-05-07 23:33 47.23790 -1.66815 8340 ft 277 kts 155°
2026-05-07 23:33 47.22058 -1.65573 8177 ft 276 kts 155°
2026-05-07 23:33 47.20331 -1.64337 8030 ft 276 kts 155°
2026-05-07 23:34 47.18582 -1.63203 7865 ft 274 kts 165°
2026-05-07 23:34 47.16699 -1.63024 7697 ft 272 kts 189°
2026-05-07 23:34 47.14933 -1.63978 7533 ft 273 kts 212°
2026-05-07 23:34 47.13541 -1.65861 7385 ft 274 kts 230°
2026-05-07 23:35 47.12349 -1.68044 7225 ft 274 kts 230°
2026-05-07 23:35 47.11152 -1.70219 7067 ft 274 kts 230°
2026-05-07 23:35 47.09952 -1.72393 6764 ft 276 kts 230°
2026-05-07 23:35 47.08728 -1.74600 6252 ft 277 kts 229°
2026-05-07 23:36 47.07522 -1.76767 5883 ft 269 kts 229°
2026-05-07 23:36 47.06362 -1.78851 5496 ft 265 kts 229°
2026-05-07 23:36 47.05178 -1.80973 4922 ft 269 kts 229°
2026-05-07 23:36 47.04012 -1.83066 4707 ft 259 kts 229°
2026-05-07 23:37 47.02898 -1.85067 4584 ft 247 kts 229°
2026-05-07 23:37 47.01831 -1.86975 4455 ft 240 kts 226°
2026-05-07 23:37 47.00489 -1.88298 4089 ft 232 kts 191°
2026-05-07 23:37 46.98950 -1.88053 3801 ft 223 kts 149°
2026-05-07 23:38 46.97796 -1.86591 3537 ft 218 kts 131°
2026-05-07 23:38 46.96850 -1.84886 3275 ft 215 kts 127°
2026-05-07 23:38 46.95999 -1.83122 3089 ft 208 kts 119°
2026-05-07 23:38 46.95507 -1.81196 2998 ft 198 kts 100°
2026-05-07 23:39 46.95465 -1.79203 3001 ft 196 kts 83°
2026-05-07 23:39 46.95846 -1.77292 3004 ft 196 kts 65°
2026-05-07 23:39 46.96616 -1.75641 3005 ft 198 kts 47°
2026-05-07 23:39 46.97712 -1.74420 3005 ft 200 kts 30°
2026-05-07 23:40 46.98546 -1.73790 3005 ft 200 kts 29°
2026-05-07 23:40 47.00184 -1.72554 2997 ft 197 kts 29°
2026-05-07 23:40 47.00996 -1.71942 2906 ft 193 kts 29°
2026-05-07 23:40 47.02176 -1.71050 2697 ft 190 kts 29°
2026-05-07 23:41 47.03344 -1.70165 2460 ft 188 kts 28°
2026-05-07 23:41 47.04504 -1.69287 2223 ft 186 kts 28°
2026-05-07 23:41 47.05622 -1.68439 1991 ft 175 kts 28°
2026-05-07 23:41 47.06676 -1.67641 1739 ft 167 kts 27°
2026-05-07 23:42 47.07693 -1.66869 1522 ft 163 kts 27°
2026-05-07 23:42 47.08666 -1.66130 1335 ft 150 kts 27°
2026-05-07 23:42 47.09557 -1.65454 1119 ft 141 kts 27°
2026-05-07 23:42 47.10415 -1.64803 943 ft 137 kts 27°
2026-05-07 23:43 47.11261 -1.64170 774 ft 136 kts 27°
2026-05-07 23:43 47.12100 -1.63540 582 ft 135 kts 27°
2026-05-07 23:43 47.12923 -1.62891 416 ft 134 kts 27°
2026-05-07 23:43 47.13757 -1.62273 229 ft 134 kts 28°
2026-05-07 23:44 47.14570 -1.61639 106 ft 124 kts 26°
2026-05-07 23:44 47.14820 -1.61439 97 ft 0 kts 21°